COSMOS 1275 DEB, 42226

Orbit data source: Space-Track

COSMOS 1275 DEB, 42226 is space debris in LEO originally from a launch on Thu, 04 Jun 1981 UTC launched from the Plesetsk Missile And Space Complex (PKMTR). Debris objects in space refer to the collection of defunct objects orbiting the Earth. Examples of debris include non-operational satellites, rocket bodies, and fragments generated from explosions, collisions, or faulty payload assembly.

Loading next visibility...
Identifier
42226, 1981-053US
Orbit
LEO
Country
Flag of CISCIS
Related business
Manufacturer
Unknown
Mission
Spacecraft
Bus & Motor
Unknown
Mass
Unknown
Launch date (UTC)
1981-06-04 (45 years ago)
Launch vehicle
Unknown
Launch site
Plesetsk Missile And Space Complex (PKMTR)
Object type
Payload
Rocket body
Debris
Shape & HBR
Unknown shape, 0.1 m
Radar Cross Section
Small (<0.1 m²)

Expand to show TLE details & history
Last TLE update: 2 weeks ago

TLE from 2 weeks ago
0 COSMOS 1275 DEB
1 42226U 81053US  26024.48946636  .00001213  00000-0  13356-2 0  9990
2 42226  82.9583 310.1216 0108023 221.6822 137.6064 13.68866248607725
Epoch: 2026-01-24T11:44Z
TLE epoch observation values (Epoch: 2026-01-24T11:44:49.893Z)
Latitude
0.00002°
Longitude
10.10053°
Altitude
1,065.824 km
Speed
7.29 km/s
True Right ascension
20h 40m 29s
True Declination
0° 00' 00"
Sunlit
Object was in daylight at epoch
Visualization orbit readout
Latitude
Unknown
Longitude
Unknown
Altitude
Unknown
Speed
Unknown
Apparent Right ascension
Unknown
Apparent Declination
Unknown
Sunlit
N/A
Visualization observer readout
Local Sidereal Time
13:01:37
Azimuth
Unknown
Elevation
Unknown
Doppler factor
Unknown
Orbital elements
Apogee altitude
1,080.51 km
Perigee altitude
921.091 km
Semi-major axis
7,378.937 km
Eccentricity
0.0108
Inclination
82.9583°
RAAN
310.1216°
Arg. of periapsis
221.6822°
True anomaly
138.43271°
Mean anomaly
137.6064°
Eccentric anomaly
138.02038°
Mean motion
3.42415 °/min
Orbital period
105.14 mins
BSTAR
0.0013356
Loading maneuver chart data...
Computing Atmospheric mass density...
Loading historical data...
Loading historical data...
Loading historical data...
Loading historical data...
Loading historical data...
Loading historical data...
Loading historical data...

Documentation

Showing up to 5 results
|